LVPRO SCDA-SCFA

Flight info

Callsign LVPRO
Flight time 1h 34m
Altitude 3000
Route ENLUS5B ENLUS ENLUS5A
Aircraft C172/L-SFG/C

Departure

Time 2026-04-17 00:48
Airport Diego Aracena International Airport (SCDA)

Arrival

Time 2026-04-17 02:22
Airport Andrés Sabella Gálvez International Airport (SCFA)
Time Latitude Longitude Altitude Speed Heading
2026-04-17 00:46 -20.55006 -70.18206 183 ft 1 kts 346°
2026-04-17 00:47 -20.54939 -70.18205 180 ft 31 kts
2026-04-17 00:47 -20.54541 -70.18184 202 ft 73 kts 354°
2026-04-17 00:47 -20.54014 -70.18148 380 ft 75 kts 352°
2026-04-17 00:47 -20.53460 -70.18156 534 ft 83 kts 358°
2026-04-17 00:48 -20.52876 -70.18099 724 ft 84 kts 356°
2026-04-17 00:48 -20.52267 -70.18079 891 ft 87 kts 357°
2026-04-17 00:48 -20.51706 -70.18188 1074 ft 84 kts 319°
2026-04-17 00:48 -20.51434 -70.18719 1214 ft 83 kts 268°
2026-04-17 00:49 -20.51651 -70.19262 1364 ft 83 kts 219°
2026-04-17 00:49 -20.52203 -70.19421 1522 ft 86 kts 170°
2026-04-17 00:49 -20.52756 -70.19176 1674 ft 88 kts 152°
2026-04-17 00:49 -20.53307 -70.18861 1836 ft 90 kts 150°
2026-04-17 00:50 -20.53859 -70.18540 1998 ft 91 kts 151°
2026-04-17 00:50 -20.54459 -70.18317 2152 ft 91 kts 168°
2026-04-17 00:50 -20.55094 -70.18235 2303 ft 91 kts 176°
2026-04-17 00:50 -20.55735 -70.18220 2465 ft 91 kts 180°
2026-04-17 00:51 -20.56376 -70.18237 2623 ft 91 kts 181°
2026-04-17 00:51 -20.57009 -70.18264 2775 ft 91 kts 181°
2026-04-17 00:51 -20.57646 -70.18298 2928 ft 91 kts 181°
2026-04-17 00:51 -20.58126 -70.18324 3042 ft 91 kts 181°
2026-04-17 00:52 -20.58628 -70.18352 3159 ft 92 kts 181°
2026-04-17 00:52 -20.59267 -70.18388 3310 ft 91 kts 181°
2026-04-17 00:52 -20.59904 -70.18424 3457 ft 92 kts 181°
2026-04-17 00:52 -20.60544 -70.18460 3607 ft 92 kts 181°
2026-04-17 00:53 -20.61191 -70.18497 3760 ft 92 kts 182°
2026-04-17 00:53 -20.61832 -70.18533 3909 ft 92 kts 182°
2026-04-17 00:53 -20.62478 -70.18570 4045 ft 93 kts 182°
2026-04-17 00:53 -20.63128 -70.18607 4187 ft 93 kts 183°
2026-04-17 00:54 -20.63771 -70.18645 4324 ft 93 kts 183°
2026-04-17 00:54 -20.64420 -70.18682 4462 ft 93 kts 182°
2026-04-17 00:54 -20.65075 -70.18720 4600 ft 93 kts 182°
2026-04-17 00:54 -20.65726 -70.18757 4726 ft 94 kts 181°
2026-04-17 00:55 -20.66382 -70.18794 4856 ft 94 kts 181°
2026-04-17 00:55 -20.67030 -70.18728 4981 ft 94 kts 173°
2026-04-17 00:55 -20.67684 -70.18754 5102 ft 95 kts 182°
2026-04-17 00:55 -20.68342 -70.18799 5233 ft 94 kts 181°
2026-04-17 00:56 -20.69009 -70.18835 5354 ft 95 kts 181°
2026-04-17 00:56 -20.69665 -70.18863 5477 ft 94 kts 180°
2026-04-17 00:56 -20.70324 -70.18887 5601 ft 94 kts 180°
2026-04-17 00:56 -20.70980 -70.18908 5719 ft 94 kts 180°
2026-04-17 00:57 -20.71645 -70.18928 5835 ft 95 kts 180°
2026-04-17 00:57 -20.72315 -70.18947 5951 ft 95 kts 180°
2026-04-17 00:57 -20.72975 -70.18964 6065 ft 95 kts 180°
2026-04-17 00:57 -20.73645 -70.18983 6179 ft 95 kts 181°
2026-04-17 00:58 -20.74313 -70.19000 6285 ft 97 kts 180°
2026-04-17 00:58 -20.74988 -70.19019 6398 ft 96 kts 180°
2026-04-17 00:58 -20.75667 -70.19038 6515 ft 96 kts 180°
2026-04-17 00:58 -20.76344 -70.19057 6621 ft 97 kts 179°
2026-04-17 00:59 -20.77018 -70.19074 6725 ft 97 kts 179°
2026-04-17 00:59 -20.77699 -70.19093 6835 ft 97 kts 179°
2026-04-17 00:59 -20.78379 -70.19110 6948 ft 96 kts 179°
2026-04-17 00:59 -20.79050 -70.19128 7055 ft 97 kts 179°
2026-04-17 01:00 -20.79726 -70.19146 7157 ft 97 kts 179°
2026-04-17 01:00 -20.80412 -70.19164 7263 ft 97 kts 179°
2026-04-17 01:00 -20.81084 -70.19183 7366 ft 97 kts 179°
2026-04-17 01:00 -20.81769 -70.19200 7463 ft 97 kts 179°
2026-04-17 01:01 -20.82452 -70.19218 7563 ft 97 kts 179°
2026-04-17 01:01 -20.83131 -70.19237 7662 ft 98 kts 180°
2026-04-17 01:01 -20.83820 -70.19255 7759 ft 98 kts 180°
2026-04-17 01:01 -20.84500 -70.19273 7843 ft 98 kts 180°
2026-04-17 01:02 -20.85192 -70.19292 7942 ft 99 kts 180°
2026-04-17 01:02 -20.85889 -70.19312 8039 ft 100 kts 179°
2026-04-17 01:02 -20.86589 -70.19331 8135 ft 99 kts 179°
2026-04-17 01:02 -20.87285 -70.19350 8235 ft 99 kts 178°
2026-04-17 01:03 -20.87982 -70.19367 8328 ft 100 kts 179°
2026-04-17 01:03 -20.88683 -70.19385 8426 ft 100 kts 178°
2026-04-17 01:03 -20.89386 -70.19404 8526 ft 100 kts 179°
2026-04-17 01:03 -20.90087 -70.19423 8617 ft 100 kts 179°
2026-04-17 01:04 -20.90784 -70.19442 8707 ft 101 kts 179°
2026-04-17 01:04 -20.91492 -70.19461 8803 ft 101 kts 179°
2026-04-17 01:04 -20.92205 -70.19480 8903 ft 100 kts 179°
2026-04-17 01:04 -20.92897 -70.19498 8998 ft 101 kts 179°
2026-04-17 01:05 -20.93603 -70.19518 9094 ft 100 kts 179°
2026-04-17 01:05 -20.94301 -70.19536 9186 ft 101 kts 178°
2026-04-17 01:05 -20.95014 -70.19555 9279 ft 102 kts 178°
2026-04-17 01:05 -20.95734 -70.19575 9364 ft 102 kts 178°
2026-04-17 01:06 -20.96454 -70.19594 9459 ft 103 kts 178°
2026-04-17 01:06 -20.97164 -70.19613 9567 ft 102 kts 178°
2026-04-17 01:06 -20.97880 -70.19632 9667 ft 102 kts 178°
2026-04-17 01:06 -20.98596 -70.19651 9762 ft 102 kts 178°
2026-04-17 01:07 -20.99312 -70.19670 9853 ft 102 kts 178°
2026-04-17 01:07 -21.00020 -70.19688 9949 ft 101 kts 179°
2026-04-17 01:07 -21.00726 -70.19707 10046 ft 100 kts 178°
2026-04-17 01:07 -21.01465 -70.19725 10050 ft 110 kts 179°
2026-04-17 01:08 -21.02268 -70.19747 10047 ft 118 kts 179°
2026-04-17 01:08 -21.03111 -70.19770 10038 ft 123 kts 179°
2026-04-17 01:08 -21.03981 -70.19793 10035 ft 125 kts 179°
2026-04-17 01:08 -21.04860 -70.19816 10043 ft 128 kts 179°
2026-04-17 01:09 -21.05753 -70.19842 10036 ft 126 kts 180°
2026-04-17 01:09 -21.06614 -70.19867 10033 ft 123 kts 180°
2026-04-17 01:09 -21.07478 -70.19891 10039 ft 122 kts 179°
2026-04-17 01:09 -21.08334 -70.19913 10032 ft 121 kts 179°
2026-04-17 01:10 -21.09173 -70.19936 10034 ft 120 kts 180°
2026-04-17 01:10 -21.10015 -70.19958 10035 ft 119 kts 179°
2026-04-17 01:10 -21.10841 -70.19979 10036 ft 118 kts 180°
2026-04-17 01:10 -21.11669 -70.20001 10040 ft 118 kts 180°
2026-04-17 01:11 -21.12492 -70.20023 10040 ft 119 kts 180°
2026-04-17 01:11 -21.13325 -70.20046 10045 ft 119 kts 180°
2026-04-17 01:11 -21.14158 -70.20068 10044 ft 119 kts 180°
2026-04-17 01:11 -21.14994 -70.20090 10039 ft 119 kts 180°
2026-04-17 01:12 -21.15831 -70.20113 10040 ft 119 kts 180°
2026-04-17 01:12 -21.16665 -70.20135 10044 ft 120 kts 179°
2026-04-17 01:12 -21.17513 -70.20158 10045 ft 120 kts 179°
2026-04-17 01:12 -21.18357 -70.20180 10042 ft 121 kts 179°
2026-04-17 01:13 -21.19201 -70.20203 10054 ft 121 kts 179°
2026-04-17 01:13 -21.20044 -70.20225 10035 ft 121 kts 179°
2026-04-17 01:13 -21.20881 -70.20248 10039 ft 120 kts 179°
2026-04-17 01:13 -21.21724 -70.20270 10040 ft 120 kts 179°
2026-04-17 01:14 -21.22556 -70.20292 10039 ft 120 kts 179°
2026-04-17 01:14 -21.23402 -70.20314 10048 ft 120 kts 179°
2026-04-17 01:14 -21.24250 -70.20336 10043 ft 121 kts 179°
2026-04-17 01:14 -21.25099 -70.20359 10047 ft 122 kts 179°
2026-04-17 01:15 -21.25951 -70.20381 10041 ft 121 kts 179°
2026-04-17 01:15 -21.26805 -70.20405 10045 ft 122 kts 179°
2026-04-17 01:15 -21.27644 -70.20427 10050 ft 122 kts 179°
2026-04-17 01:15 -21.28498 -70.20450 10050 ft 122 kts 179°
2026-04-17 01:16 -21.29362 -70.20473 10045 ft 123 kts 179°
2026-04-17 01:16 -21.30215 -70.20496 10044 ft 122 kts 180°
2026-04-17 01:16 -21.31069 -70.20519 10043 ft 122 kts 179°
2026-04-17 01:16 -21.31923 -70.20542 10049 ft 122 kts 180°
2026-04-17 01:17 -21.32778 -70.20565 10045 ft 122 kts 180°
2026-04-17 01:17 -21.33629 -70.20588 10033 ft 121 kts 179°
2026-04-17 01:17 -21.34471 -70.20610 10035 ft 119 kts 179°
2026-04-17 01:17 -21.35294 -70.20631 10044 ft 119 kts 179°
2026-04-17 01:18 -21.36135 -70.20654 10050 ft 120 kts 179°
2026-04-17 01:18 -21.36975 -70.20676 10047 ft 120 kts 179°
2026-04-17 01:18 -21.37820 -70.20699 10039 ft 120 kts 179°
2026-04-17 01:18 -21.38652 -70.20721 10048 ft 120 kts 179°
2026-04-17 01:19 -21.39489 -70.20743 10057 ft 120 kts 179°
2026-04-17 01:19 -21.40341 -70.20766 10053 ft 122 kts 179°
2026-04-17 01:19 -21.41199 -70.20789 10049 ft 122 kts 179°
2026-04-17 01:19 -21.42053 -70.20812 10045 ft 122 kts 179°
2026-04-17 01:20 -21.42895 -70.20834 10054 ft 122 kts 179°
2026-04-17 01:20 -21.43747 -70.20858 10063 ft 122 kts 180°
2026-04-17 01:20 -21.44607 -70.20881 10055 ft 123 kts 180°
2026-04-17 01:20 -21.45473 -70.20905 10055 ft 123 kts 179°
2026-04-17 01:21 -21.46326 -70.20928 10045 ft 123 kts 180°
2026-04-17 01:21 -21.47186 -70.20951 10033 ft 121 kts 179°
2026-04-17 01:21 -21.48021 -70.20973 10034 ft 119 kts 179°
2026-04-17 01:21 -21.48856 -70.20995 10050 ft 119 kts 179°
2026-04-17 01:22 -21.49697 -70.21017 10057 ft 121 kts 179°
2026-04-17 01:22 -21.50545 -70.21040 10039 ft 121 kts 179°
2026-04-17 01:22 -21.51382 -70.21062 10027 ft 121 kts 179°
2026-04-17 01:22 -21.52226 -70.21085 10038 ft 120 kts 179°
2026-04-17 01:23 -21.53059 -70.21107 10035 ft 120 kts 179°
2026-04-17 01:23 -21.53899 -70.21129 10038 ft 120 kts 179°
2026-04-17 01:23 -21.54735 -70.21152 10044 ft 120 kts 179°
2026-04-17 01:23 -21.55579 -70.21174 10057 ft 121 kts 179°
2026-04-17 01:24 -21.56440 -70.21197 10052 ft 122 kts 179°
2026-04-17 01:24 -21.57293 -70.21221 10070 ft 124 kts 179°
2026-04-17 01:24 -21.58169 -70.21245 10049 ft 125 kts 179°
2026-04-17 01:24 -21.59043 -70.21270 10037 ft 124 kts 179°
2026-04-17 01:25 -21.59909 -70.21293 10033 ft 123 kts 179°
2026-04-17 01:25 -21.60751 -70.21316 10031 ft 121 kts 179°
2026-04-17 01:25 -21.61601 -70.21338 10031 ft 120 kts 179°
2026-04-17 01:25 -21.62439 -70.21359 10049 ft 120 kts 180°
2026-04-17 01:26 -21.63287 -70.21381 10054 ft 121 kts 180°
2026-04-17 01:26 -21.64131 -70.21404 10035 ft 122 kts 180°
2026-04-17 01:26 -21.64980 -70.21427 10026 ft 121 kts 180°
2026-04-17 01:26 -21.65815 -70.21450 10035 ft 119 kts 179°
2026-04-17 01:27 -21.66651 -70.21472 10043 ft 120 kts 179°
2026-04-17 01:27 -21.67491 -70.21494 10049 ft 121 kts 179°
2026-04-17 01:27 -21.68348 -70.21517 10051 ft 122 kts 179°
2026-04-17 01:27 -21.69201 -70.21540 10049 ft 123 kts 179°
2026-04-17 01:28 -21.70062 -70.21564 10045 ft 123 kts 179°
2026-04-17 01:28 -21.70921 -70.21587 10038 ft 122 kts 179°
2026-04-17 01:28 -21.71774 -70.21610 10052 ft 123 kts 179°
2026-04-17 01:28 -21.72634 -70.21633 10051 ft 123 kts 179°
2026-04-17 01:29 -21.73493 -70.21656 10043 ft 123 kts 179°
2026-04-17 01:29 -21.75206 -70.21703 10044 ft 122 kts 179°
2026-04-17 01:29 -21.76059 -70.21725 10039 ft 122 kts 179°
2026-04-17 01:30 -21.76920 -70.21749 10041 ft 122 kts 179°
2026-04-17 01:30 -21.77762 -70.21771 10046 ft 122 kts 179°
2026-04-17 01:30 -21.78616 -70.21794 10045 ft 122 kts 179°
2026-04-17 01:30 -21.79473 -70.21817 10042 ft 122 kts 180°
2026-04-17 01:31 -21.80335 -70.21841 10046 ft 122 kts 179°
2026-04-17 01:31 -21.81189 -70.21864 10029 ft 122 kts 179°
2026-04-17 01:31 -21.82034 -70.21887 10028 ft 121 kts 179°
2026-04-17 01:31 -21.82875 -70.21909 10037 ft 120 kts 178°
2026-04-17 01:32 -21.83711 -70.21931 10038 ft 120 kts 179°
2026-04-17 01:32 -21.84565 -70.21954 10051 ft 122 kts 179°
2026-04-17 01:32 -21.85137 -70.21968 10037 ft 122 kts 179°
2026-04-17 01:32 -21.85997 -70.21991 10040 ft 122 kts 179°
2026-04-17 01:33 -21.86843 -70.22015 10047 ft 122 kts 180°
2026-04-17 01:33 -21.87706 -70.22038 10043 ft 123 kts 180°
2026-04-17 01:33 -21.88556 -70.22061 10023 ft 122 kts 179°
2026-04-17 01:33 -21.89409 -70.22102 10038 ft 121 kts 183°
2026-04-17 01:34 -21.90247 -70.22208 10046 ft 121 kts 186°
2026-04-17 01:34 -21.91089 -70.22330 10043 ft 122 kts 186°
2026-04-17 01:34 -21.91937 -70.22452 10036 ft 123 kts 186°
2026-04-17 01:34 -21.92780 -70.22574 10028 ft 121 kts 186°
2026-04-17 01:35 -21.93612 -70.22694 10022 ft 120 kts 185°
2026-04-17 01:35 -21.94450 -70.22813 10035 ft 120 kts 185°
2026-04-17 01:35 -21.95281 -70.22931 10025 ft 120 kts 186°
2026-04-17 01:35 -21.96105 -70.23048 10024 ft 119 kts 186°
2026-04-17 01:36 -21.96936 -70.23167 10021 ft 118 kts 186°
2026-04-17 01:36 -21.97749 -70.23283 10024 ft 118 kts 186°
2026-04-17 01:36 -21.98565 -70.23399 10057 ft 119 kts 186°
2026-04-17 01:36 -21.99400 -70.23519 10052 ft 122 kts 186°
2026-04-17 01:37 -22.00249 -70.23641 10038 ft 123 kts 186°
2026-04-17 01:37 -22.01100 -70.23763 10030 ft 124 kts 186°
2026-04-17 01:37 -22.01964 -70.23888 10028 ft 123 kts 186°
2026-04-17 01:37 -22.02811 -70.24010 10029 ft 122 kts 186°
2026-04-17 01:38 -22.03663 -70.24132 10040 ft 123 kts 186°
2026-04-17 01:38 -22.04519 -70.24255 10010 ft 124 kts 186°
2026-04-17 01:38 -22.05375 -70.24377 10010 ft 121 kts 185°
2026-04-17 01:38 -22.06208 -70.24497 10019 ft 121 kts 185°
2026-04-17 01:39 -22.07057 -70.24617 10031 ft 122 kts 186°
2026-04-17 01:39 -22.07907 -70.24738 10013 ft 124 kts 186°
2026-04-17 01:39 -22.08764 -70.24860 10002 ft 122 kts 186°
2026-04-17 01:39 -22.09601 -70.24980 10009 ft 122 kts 186°
2026-04-17 01:40 -22.10456 -70.25102 10009 ft 123 kts 186°
2026-04-17 01:40 -22.11302 -70.25223 10007 ft 122 kts 186°
2026-04-17 01:40 -22.12142 -70.25344 10006 ft 122 kts 186°
2026-04-17 01:40 -22.12991 -70.25465 10013 ft 121 kts 186°
2026-04-17 01:41 -22.13829 -70.25585 10011 ft 121 kts 186°
2026-04-17 01:41 -22.14672 -70.25706 10007 ft 122 kts 186°
2026-04-17 01:41 -22.15511 -70.25826 10004 ft 122 kts 185°
2026-04-17 01:41 -22.16360 -70.25948 10006 ft 121 kts 185°
2026-04-17 01:42 -22.17198 -70.26068 10002 ft 121 kts 185°
2026-04-17 01:42 -22.18036 -70.26187 10001 ft 121 kts 186°
2026-04-17 01:42 -22.18869 -70.26306 10018 ft 121 kts 186°
2026-04-17 01:42 -22.19721 -70.26427 10015 ft 122 kts 186°
2026-04-17 01:43 -22.20566 -70.26549 10013 ft 122 kts 186°
2026-04-17 01:43 -22.21406 -70.26669 10015 ft 122 kts 186°
2026-04-17 01:43 -22.22245 -70.26790 10020 ft 122 kts 186°
2026-04-17 01:43 -22.23091 -70.26911 10023 ft 121 kts 186°
2026-04-17 01:44 -22.23926 -70.27032 10040 ft 121 kts 186°
2026-04-17 01:44 -22.24778 -70.27154 10042 ft 123 kts 186°
2026-04-17 01:44 -22.25627 -70.27277 10032 ft 124 kts 186°
2026-04-17 01:44 -22.26487 -70.27400 10035 ft 124 kts 186°
2026-04-17 01:45 -22.27352 -70.27525 10037 ft 124 kts 185°
2026-04-17 01:45 -22.28210 -70.27648 10038 ft 125 kts 185°
2026-04-17 01:45 -22.29085 -70.27773 10035 ft 126 kts 185°
2026-04-17 01:45 -22.29944 -70.27897 10021 ft 124 kts 185°
2026-04-17 01:46 -22.30802 -70.28020 10025 ft 123 kts 185°
2026-04-17 01:46 -22.31652 -70.28142 10027 ft 122 kts 186°
2026-04-17 01:46 -22.32488 -70.28261 10030 ft 121 kts 186°
2026-04-17 01:46 -22.33332 -70.28381 10033 ft 120 kts 186°
2026-04-17 01:47 -22.34160 -70.28500 10036 ft 120 kts 186°
2026-04-17 01:47 -22.35000 -70.28620 10041 ft 121 kts 186°
2026-04-17 01:47 -22.35844 -70.28741 10041 ft 121 kts 186°
2026-04-17 01:47 -22.36675 -70.28861 10033 ft 121 kts 186°
2026-04-17 01:48 -22.37517 -70.28982 10050 ft 121 kts 186°
2026-04-17 01:48 -22.38362 -70.29103 10054 ft 122 kts 186°
2026-04-17 01:48 -22.39213 -70.29226 10053 ft 124 kts 186°
2026-04-17 01:48 -22.40073 -70.29349 10051 ft 124 kts 185°
2026-04-17 01:49 -22.40930 -70.29474 10061 ft 124 kts 186°
2026-04-17 01:49 -22.41793 -70.29598 10060 ft 125 kts 186°
2026-04-17 01:49 -22.42660 -70.29723 10063 ft 125 kts 186°
2026-04-17 01:49 -22.43527 -70.29848 10046 ft 125 kts 186°
2026-04-17 01:50 -22.44382 -70.29971 10050 ft 122 kts 186°
2026-04-17 01:50 -22.45229 -70.30093 10056 ft 122 kts 186°
2026-04-17 01:50 -22.46078 -70.30215 10051 ft 122 kts 186°
2026-04-17 01:50 -22.46924 -70.30337 10059 ft 122 kts 186°
2026-04-17 01:51 -22.47772 -70.30458 10068 ft 123 kts 186°
2026-04-17 01:51 -22.48628 -70.30582 10067 ft 124 kts 186°
2026-04-17 01:51 -22.49493 -70.30706 10051 ft 124 kts 185°
2026-04-17 01:51 -22.50348 -70.30830 10056 ft 123 kts 186°
2026-04-17 01:52 -22.51200 -70.30952 10074 ft 123 kts 186°
2026-04-17 01:52 -22.52063 -70.31075 10071 ft 124 kts 186°
2026-04-17 01:52 -22.52923 -70.31200 10065 ft 123 kts 186°
2026-04-17 01:52 -22.53779 -70.31323 10062 ft 122 kts 186°
2026-04-17 01:53 -22.54622 -70.31444 10098 ft 122 kts 186°
2026-04-17 01:53 -22.55474 -70.31566 10094 ft 125 kts 186°
2026-04-17 01:53 -22.56347 -70.31692 10086 ft 126 kts 186°
2026-04-17 01:53 -22.57223 -70.31820 10080 ft 126 kts 186°
2026-04-17 01:54 -22.58091 -70.31945 10083 ft 125 kts 186°
2026-04-17 01:54 -22.58948 -70.32069 10084 ft 125 kts 186°
2026-04-17 01:54 -22.59817 -70.32194 10089 ft 124 kts 186°
2026-04-17 01:54 -22.60682 -70.32318 10092 ft 125 kts 186°
2026-04-17 01:55 -22.61554 -70.32443 10101 ft 126 kts 186°
2026-04-17 01:55 -22.62432 -70.32571 10085 ft 126 kts 186°
2026-04-17 01:55 -22.63294 -70.32696 10080 ft 124 kts 186°
2026-04-17 01:55 -22.64145 -70.32819 10095 ft 124 kts 186°
2026-04-17 01:56 -22.65002 -70.32942 10097 ft 124 kts 186°
2026-04-17 01:56 -22.65870 -70.33067 10097 ft 123 kts 186°
2026-04-17 01:56 -22.66715 -70.33188 10106 ft 124 kts 186°
2026-04-17 01:56 -22.67576 -70.33312 10098 ft 125 kts 186°
2026-04-17 01:57 -22.68440 -70.33437 10098 ft 124 kts 186°
2026-04-17 01:57 -22.69297 -70.33561 10103 ft 124 kts 186°
2026-04-17 01:57 -22.70163 -70.33685 10113 ft 125 kts 186°
2026-04-17 01:57 -22.71031 -70.33810 10107 ft 125 kts 186°
2026-04-17 01:58 -22.71890 -70.33935 10105 ft 126 kts 186°
2026-04-17 01:58 -22.72759 -70.34061 10113 ft 126 kts 186°
2026-04-17 01:58 -22.73644 -70.34189 10104 ft 126 kts 186°
2026-04-17 01:58 -22.74504 -70.34314 10101 ft 124 kts 186°
2026-04-17 01:59 -22.75364 -70.34438 10109 ft 123 kts 186°
2026-04-17 01:59 -22.76219 -70.34561 10113 ft 123 kts 186°
2026-04-17 01:59 -22.77076 -70.34684 10114 ft 124 kts 186°
2026-04-17 01:59 -22.77939 -70.34808 10113 ft 124 kts 186°
2026-04-17 02:00 -22.78799 -70.34933 10112 ft 124 kts 186°
2026-04-17 02:00 -22.79661 -70.35057 10114 ft 124 kts 186°
2026-04-17 02:00 -22.80533 -70.35184 10114 ft 125 kts 186°
2026-04-17 02:00 -22.81399 -70.35315 10109 ft 126 kts 187°
2026-04-17 02:01 -22.82257 -70.35447 10106 ft 125 kts 187°
2026-04-17 02:01 -22.83128 -70.35583 10112 ft 125 kts 187°
2026-04-17 02:01 -22.83994 -70.35719 10108 ft 125 kts 187°
2026-04-17 02:01 -22.84859 -70.35855 10106 ft 125 kts 187°
2026-04-17 02:02 -22.85722 -70.35992 10106 ft 125 kts 187°
2026-04-17 02:02 -22.86581 -70.36128 10106 ft 125 kts 187°
2026-04-17 02:02 -22.87445 -70.36266 10113 ft 125 kts 186°
2026-04-17 02:02 -22.88308 -70.36403 10104 ft 125 kts 187°
2026-04-17 02:03 -22.89178 -70.36541 10098 ft 125 kts 186°
2026-04-17 02:03 -22.90038 -70.36678 10105 ft 124 kts 186°
2026-04-17 02:03 -22.90899 -70.36815 10103 ft 125 kts 187°
2026-04-17 02:03 -22.91767 -70.36953 10105 ft 126 kts 187°
2026-04-17 02:04 -22.92636 -70.37092 10102 ft 126 kts 187°
2026-04-17 02:04 -22.93512 -70.37232 10094 ft 126 kts 187°
2026-04-17 02:04 -22.94379 -70.37371 10084 ft 126 kts 187°
2026-04-17 02:04 -22.95241 -70.37509 10081 ft 126 kts 187°
2026-04-17 02:05 -22.96142 -70.37655 9979 ft 131 kts 187°
2026-04-17 02:05 -22.97050 -70.37807 9854 ft 129 kts 188°
2026-04-17 02:05 -22.97920 -70.37956 9714 ft 124 kts 188°
2026-04-17 02:05 -22.98772 -70.38098 9575 ft 122 kts 188°
2026-04-17 02:06 -22.99605 -70.38234 9437 ft 121 kts 187°
2026-04-17 02:06 -23.00443 -70.38369 9312 ft 120 kts 187°
2026-04-17 02:06 -23.01271 -70.38502 9171 ft 119 kts 187°
2026-04-17 02:06 -23.02080 -70.38631 9041 ft 117 kts 187°
2026-04-17 02:07 -23.02893 -70.38761 8905 ft 117 kts 187°
2026-04-17 02:07 -23.03689 -70.38889 8772 ft 116 kts 187°
2026-04-17 02:07 -23.04491 -70.39017 8633 ft 115 kts 187°
2026-04-17 02:07 -23.05280 -70.39143 8496 ft 114 kts 187°
2026-04-17 02:08 -23.06070 -70.39270 8356 ft 114 kts 187°
2026-04-17 02:08 -23.06855 -70.39396 8223 ft 113 kts 187°
2026-04-17 02:08 -23.07638 -70.39521 8086 ft 113 kts 186°
2026-04-17 02:08 -23.08415 -70.39645 7945 ft 112 kts 186°
2026-04-17 02:09 -23.09186 -70.39769 7810 ft 112 kts 186°
2026-04-17 02:09 -23.09962 -70.39893 7680 ft 112 kts 186°
2026-04-17 02:09 -23.10732 -70.40016 7539 ft 111 kts 186°
2026-04-17 02:09 -23.11499 -70.40139 7406 ft 111 kts 186°
2026-04-17 02:10 -23.12271 -70.40262 7273 ft 110 kts 186°
2026-04-17 02:10 -23.13024 -70.40383 7130 ft 110 kts 186°
2026-04-17 02:10 -23.13783 -70.40505 6988 ft 109 kts 186°
2026-04-17 02:10 -23.14530 -70.40625 6849 ft 109 kts 186°
2026-04-17 02:11 -23.15288 -70.40746 6709 ft 108 kts 186°
2026-04-17 02:11 -23.16029 -70.40865 6574 ft 108 kts 186°
2026-04-17 02:11 -23.16771 -70.40984 6450 ft 107 kts 186°
2026-04-17 02:11 -23.17524 -70.41104 6319 ft 108 kts 186°
2026-04-17 02:12 -23.18264 -70.41223 6189 ft 107 kts 186°
2026-04-17 02:12 -23.18998 -70.41341 6061 ft 107 kts 186°
2026-04-17 02:12 -23.19732 -70.41458 5935 ft 106 kts 186°
2026-04-17 02:12 -23.20465 -70.41576 5805 ft 106 kts 186°
2026-04-17 02:13 -23.21196 -70.41693 5670 ft 105 kts 186°
2026-04-17 02:13 -23.21920 -70.41809 5534 ft 105 kts 185°
2026-04-17 02:13 -23.22644 -70.41925 5401 ft 105 kts 186°
2026-04-17 02:13 -23.23366 -70.42039 5276 ft 105 kts 186°
2026-04-17 02:14 -23.24093 -70.42150 5152 ft 104 kts 186°
2026-04-17 02:14 -23.24808 -70.42258 5026 ft 104 kts 185°
2026-04-17 02:14 -23.25533 -70.42336 4900 ft 103 kts 182°
2026-04-17 02:14 -23.26245 -70.42403 4776 ft 103 kts 182°
2026-04-17 02:15 -23.26964 -70.42474 4653 ft 103 kts 182°
2026-04-17 02:15 -23.27681 -70.42545 4511 ft 105 kts 182°
2026-04-17 02:15 -23.28423 -70.42622 4354 ft 106 kts 182°
2026-04-17 02:15 -23.29151 -70.42696 4206 ft 106 kts 182°
2026-04-17 02:16 -23.29885 -70.42770 4060 ft 105 kts 182°
2026-04-17 02:16 -23.30617 -70.42847 3913 ft 105 kts 183°
2026-04-17 02:16 -23.31349 -70.42924 3765 ft 105 kts 182°
2026-04-17 02:16 -23.32077 -70.42999 3613 ft 103 kts 182°
2026-04-17 02:17 -23.32781 -70.43075 3456 ft 100 kts 183°
2026-04-17 02:17 -23.33474 -70.43156 3293 ft 99 kts 187°
2026-04-17 02:17 -23.34146 -70.43289 3139 ft 96 kts 187°
2026-04-17 02:17 -23.34811 -70.43402 2981 ft 97 kts 185°
2026-04-17 02:18 -23.35468 -70.43507 2857 ft 95 kts 185°
2026-04-17 02:18 -23.36133 -70.43597 2719 ft 96 kts 185°
2026-04-17 02:18 -23.36787 -70.43726 2598 ft 95 kts 189°
2026-04-17 02:18 -23.37436 -70.43875 2465 ft 89 kts 187°
2026-04-17 02:19 -23.38018 -70.43951 2356 ft 77 kts 181°
2026-04-17 02:19 -23.38574 -70.43988 2192 ft 81 kts 179°
2026-04-17 02:19 -23.39148 -70.44008 1999 ft 84 kts 178°
2026-04-17 02:19 -23.39736 -70.44054 1764 ft 85 kts 182°
2026-04-17 02:20 -23.40313 -70.44106 1553 ft 79 kts 183°
2026-04-17 02:20 -23.40844 -70.44109 1386 ft 74 kts 180°
2026-04-17 02:20 -23.41363 -70.44145 1160 ft 77 kts 182°
2026-04-17 02:20 -23.41912 -70.44192 921 ft 77 kts 185°
2026-04-17 02:21 -23.42426 -70.44259 757 ft 73 kts 186°
2026-04-17 02:21 -23.42932 -70.44319 632 ft 72 kts 183°
2026-04-17 02:21 -23.43420 -70.44376 521 ft 70 kts 185°
2026-04-17 02:21 -23.43898 -70.44437 430 ft 64 kts 185°
2026-04-17 02:22 -23.44302 -70.44478 392 ft 52 kts 190°
2026-04-17 02:22 -23.44545 -70.44512 383 ft 10 kts 187°
2026-04-17 02:22 -23.44590 -70.44466 383 ft 9 kts 88°
2026-04-17 02:22 -23.44588 -70.44392 384 ft 9 kts 85°
2026-04-17 02:23 -23.44605 -70.44328 385 ft 9 kts 144°
2026-04-17 02:23 -23.44673 -70.44302 384 ft 11 kts 164°
2026-04-17 02:23 -23.44760 -70.44272 382 ft 14 kts 160°
2026-04-17 02:23 -23.44801 -70.44247 381 ft 5 kts 85°
2026-04-17 02:24 -23.44785 -70.44220 382 ft 4 kts 53°
2026-04-17 02:24 -23.44765 -70.44192 383 ft 4 kts 52°
2026-04-17 02:24 -23.44748 -70.44170 384 ft 3 kts 51°
2026-04-17 02:24 -23.44734 -70.44151 385 ft 2 kts 51°
2026-04-17 02:25 -23.44730 -70.44145 385 ft 0 kts 50°
2026-04-17 02:25 -23.44729 -70.44144 385 ft 0 kts 50°
2026-04-17 02:25 -23.44727 -70.44142 385 ft 0 kts 50°